Location: Bremen
(53.0793°N, 8.8017°E)
Time: 23:00:01
(UTC+02:00)

Vanguard 2 Rocket - Pass Details

Date: 19 April 2024
Orbit: 556 x 3304 km, 32.9° (Epoch: 20 May)

Event Time Altitude Azimuth Distance (km) Brightness Sun altitude
Rises 04:04:32 0° 268° (W) 7,287 11.1 -17.1°
Reaches altitude 10° 04:10:38 10° 258° (WSW) 6,233 10.7 -16.5°
Maximum altitude 04:24:56 27° 211° (SSW) 4,415 9.8 -14.9°
Drops below altitude 10° 04:36:08 10° 161° (SSE) 4,815 10.4 -13.7°
Sets 04:40:07 0° 150° (SSE) 5,422 10.8 -13.3°
